[[{"header":{"parameterUnit":"m.s-1","parameterCategory":1,"la1":30.2991,"la2":30.254,"lo1":-89.0895,"lo2":-89.0444,"dy":0.0017,"dx":0.0017,"nx":28,"ny":28,"refTime":"2023-08-27T09:00:00:Z","depth":0,"parameterNumber":2,"parameterNumberName":"U-component_of_WINDS"},"data":[0,0,0,0,0,0,0,0,0,0,0,0,0,0,0,0,0,0,0,0,0,0,0,0,0,0,0,0,0,0,0,0,0,0,0,0,0,0,0,0,0,0,0,0,0,0,0,0,0,0,0,0,0,0,0,0,0,0,1.0973,1.0973,0,1.0966,1.0966,1.0966,1.0914,1.0913,1.0912,1.091,1.0904,1.0905,1.0906,0,0,0,0,0,0,0,0,0,0,0,0,0,1.0944,1.0945,1.0973,1.0973,1.0973,1.0966,1.0966,1.0966,1.0914,1.0913,1.0911,1.091,1.0904,1.0905,1.0906,0,0,0,0,0,0,0,0,0,0,0,0,0,1.0949,1.0945,1.0973,1.0946,1.0944,1.0966,1.0966,1.0966,1.0915,1.0913,1.0911,1.0909,1.0903,1.0905,1.0906,1.0954,0,0,1.0911,1.0912,0,0,0,0,0,0,0,0,1.0949,1.095,1.095,1.0948,1.0946,1.0939,1.0953,1.0962,1.0915,1.0926,1.091,1.0908,1.0917,1.0917,1.092,1.0954,1.0953,1.0911,1.0912,1.0913,1.0913,0,0,0,0,0,0,0,1.0948,1.095,1.097,1.095,1.0948,1.0935,1.0934,1.0955,1.0932,1.0925,1.0921,1.0921,1.0916,1.0919,1.092,1.0953,1.0911,1.0912,1.0913,1.0914,1.1028,1.103,0,0,0,0,0,0,1.0951,1.095,1.0971,1.097,1.0942,1.0938,1.0936,1.0943,1.0932,1.0928,1.0922,1.0918,1.0917,1.0918,1.0919,1.0976,1.0913,1.0914,1.0915,1.1026,1.1029,1.1031,0,0,0,0,0,0,1.0951,1.0954,1.0971,1.0959,1.096,1.094,1.0949,1.0944,1.0947,1.093,1.0926,1.093,1.0916,1.0917,1.0946,1.0975,1.0915,1.0916,1.1024,1.1027,1.103,1.109,0,0,0,0,0,0,1.095,1.0954,1.0971,1.096,1.0961,1.0997,1.095,1.0945,1.095,1.0945,1.0936,1.0933,1.0915,1.0944,1.0948,1.0976,1.0917,1.1021,1.1025,1.1029,1.1085,1.1095,1.1103,0,0,0,0,0,1.095,1.0988,1.0972,1.0975,1.0982,1.0999,1.1,1.0978,1.0953,1.097,1.096,1.0933,1.0972,1.0948,1.0951,1.0981,1.1019,1.1024,1.1028,1.1081,1.1093,1.1103,0,0,0,0,0,0,1.1003,1.0986,1.0968,1.1004,1.1004,1.099,1.1012,1.099,1.0997,1.0991,1.0964,1.0962,1.0996,1.0991,1.0965,1.1028,1.0991,1.0997,1.103,1.1041,1.1049,1.105,1.0919,0,0,0,0,0,1.1019,1.1033,1.1018,1.1051,1.1052,1.1032,1.1038,1.1022,1.102,1.1019,1.1011,1.1011,1.1023,1.1031,1.1041,1.1084,1.1083,1.1106,1.1115,1.1123,1.1128,1.1153,1.1164,1.1047,1.1047,1.1046,0,0,1.1051,1.1044,1.1055,1.1061,1.1059,1.1076,1.1032,1.1051,1.1064,1.1022,1.105,1.1044,1.1042,1.1079,1.1094,1.1075,1.1161,1.1129,1.1135,1.1136,1.1159,1.117,1.118,1.105,1.1049,1.1049,0,0,1.112,1.1116,1.1144,1.1143,1.114,1.1127,1.1134,1.1125,1.1119,1.1146,1.1116,1.1131,1.1152,1.1153,1.1156,1.1228,1.1205,1.1232,1.1279,1.1303,1.1313,1.1321,1.1349,1.1359,1.1238,1.1238,1.1238,0,1.1162,1.1185,1.1161,1.1183,1.1188,1.1151,1.1181,1.1181,1.1182,1.1186,1.1165,1.1192,1.1188,1.1226,1.1244,1.1247,1.1255,1.1233,1.1313,1.1321,1.1328,1.1355,1.1365,1.1241,1.1241,1.124,1.124,0,1.1238,1.1255,1.1278,1.1281,1.1288,1.1313,1.1294,1.1304,1.1287,1.1277,1.1307,1.1301,1.131,1.1318,1.1301,1.1354,1.1343,1.1318,1.128,1.1343,1.1368,1.1377,1.1246,1.1245,1.1244,1.1243,0,0,1.1339,1.1329,1.1338,1.134,1.1335,1.1349,1.1373,1.1383,1.1394,1.1396,1.1417,1.1437,1.1414,1.1418,1.1401,1.1423,1.1483,1.1395,1.1395,1.1414,1.1544,1.1564,1.1576,1.1468,1.1469,1.1471,1.1545,0,1.1406,1.1448,1.1428,1.1472,1.1489,1.1456,1.1478,1.1479,1.147,1.1484,1.1475,1.149,1.1458,1.1461,1.148,1.1472,1.1509,1.1466,1.1489,1.149,1.1492,1.1589,1.1609,1.1679,1.1554,1.1556,1.1557,0,1.1491,1.1498,1.1544,1.1539,1.1545,1.1565,1.1574,1.1587,1.1587,1.158,1.1586,1.1565,1.159,1.1553,1.1588,1.1559,1.1568,1.1565,1.1567,1.1569,1.1528,1.1595,1.1701,1.1712,1.1571,1.157,1.1569,0,1.1562,1.1583,1.1614,1.1617,1.1611,1.1626,1.1625,1.1623,1.1631,1.1639,1.1644,1.1655,1.1661,1.167,1.1653,1.1627,1.1692,1.1653,1.1688,1.1689,1.1704,1.1704,1.1815,1.1707,1.1707,1.1707,1.1707,0,1.1641,1.1671,1.1647,1.1666,1.17,1.1677,1.1711,1.1706,1.1706,1.1724,1.1696,1.1714,1.169,1.1707,1.1694,1.1727,1.1729,1.1725,1.1721,1.1728,1.1729,1.1734,1.1729,1.171,1.1709,1.1708,1.1708,0,1.1726,1.1711,1.1744,1.1736,1.1735,1.176,1.1754,1.1773,1.1763,1.1787,1.1792,1.1777,1.1795,1.1779,1.1796,1.1788,1.1832,1.1821,1.1833,1.183,1.1867,1.1865,1.1986,1.2002,1.1883,1.1884,1.1885,0,1.1778,1.1801,1.1796,1.1807,1.1808,1.1825,1.1833,1.1812,1.1823,1.1827,1.1845,1.1861,1.1872,1.1903,1.1895,1.1909,1.1898,1.194,1.19,1.1907,1.1901,1.1901,1.1904,1.1948,1.195,1.1951,1.1952,0,1.1872,1.1864,1.1877,1.1889,1.19,1.1908,1.1914,1.1924,1.1903,1.1916,1.1935,1.1944,1.1963,1.198,1.1991,1.199,1.1969,1.1965,1.1974,1.1982,1.1988,1.1988,1.1856,1.1962,1.1961,1.196,1.196,1.1959,1.1943,1.1963,1.1964,1.198,1.1983,1.199,1.2007,1.2001,1.2016,1.2029,1.2016,1.204,1.2042,1.2055,1.2057,1.2076,1.2059,1.2071,1.2075,1.2079,1.2085,1.1985,1.2078,1.2077,1.2077,1.2077,1.2077,0,1.2037,1.2037,1.2052,1.2062,1.2076,1.2054,1.206,1.2073,1.2094,1.2098,1.2111,1.2134,1.2151,1.2144,1.2159,1.2176,1.2167,1.2181,1.218,1.2181,1.2099,1.209,1.2188,1.2188,1.2188,1.2188,1.2188,1.2188,1.2088,1.2121,1.2114,1.2149,1.2148,1.217,1.2176,1.2183,1.2186,1.2213,1.2227,1.2223,1.2224,1.2239,1.2255,1.2252,1.226,1.2279,1.2273,1.2197,1.2186,1.2176,1.2167,1.228,1.228,1.2353,1.2354,1.2355]},{"header":{"parameterUnit":"m.s-1","parameterCategory":1,"la1":30.2991,"la2":30.254,"lo1":-89.0895,"lo2":-89.0444,"dy":0.0017,"dx":0.0017,"nx":28,"ny":28,"refTime":"2023-08-27T09:00:00:Z","depth":0,"parameterNumber":3,"parameterNumberName":"V-component_of_WINDS"},"data":[0,0,0,0,0,0,0,0,0,0,0,0,0,0,0,0,0,0,0,0,0,0,0,0,0,0,0,0,0,0,0,0,0,0,0,0,0,0,0,0,0,0,0,0,0,0,0,0,0,0,0,0,0,0,0,0,0,0,-1.0785,-1.0784,0,-1.0693,-1.0692,-1.0691,-1.0647,-1.0647,-1.0647,-1.0647,-1.055,-1.0548,-1.0545,0,0,0,0,0,0,0,0,0,0,0,0,0,-1.092,-1.0918,-1.0785,-1.0784,-1.0783,-1.0693,-1.0692,-1.0691,-1.0647,-1.0647,-1.0647,-1.0647,-1.0551,-1.0548,-1.0545,0,0,0,0,0,0,0,0,0,0,0,0,0,-1.0848,-1.0918,-1.0786,-1.0751,-1.0747,-1.0693,-1.0692,-1.069,-1.0647,-1.0647,-1.0647,-1.0647,-1.0552,-1.0548,-1.0545,-1.0518,0,0,-1.0532,-1.0531,0,0,0,0,0,0,0,0,-1.0853,-1.0843,-1.0757,-1.0753,-1.0748,-1.0682,-1.0704,-1.0633,-1.0647,-1.0685,-1.0647,-1.0647,-1.0594,-1.0587,-1.0569,-1.0514,-1.051,-1.0532,-1.053,-1.0528,-1.0527,0,0,0,0,0,0,0,-1.0858,-1.0847,-1.0749,-1.0756,-1.075,-1.0738,-1.0728,-1.069,-1.064,-1.0682,-1.0678,-1.0668,-1.0592,-1.0573,-1.0566,-1.0508,-1.0532,-1.0529,-1.0526,-1.0525,-1.0425,-1.0424,0,0,0,0,0,0,-1.0869,-1.0852,-1.0752,-1.0746,-1.0802,-1.0736,-1.0725,-1.0703,-1.064,-1.0631,-1.0668,-1.0666,-1.058,-1.0571,-1.0563,-1.0526,-1.0528,-1.0524,-1.0522,-1.0425,-1.0425,-1.0424,0,0,0,0,0,0,-1.0872,-1.086,-1.0755,-1.0798,-1.0784,-1.0733,-1.071,-1.0701,-1.0682,-1.063,-1.0621,-1.0658,-1.0579,-1.0568,-1.0529,-1.0523,-1.0523,-1.0519,-1.0425,-1.0425,-1.0424,-1.0455,0,0,0,0,0,0,-1.0876,-1.0862,-1.0852,-1.0798,-1.0782,-1.0725,-1.0709,-1.0699,-1.0676,-1.0673,-1.0619,-1.061,-1.0579,-1.0536,-1.0525,-1.0517,-1.0516,-1.0426,-1.0425,-1.0425,-1.0454,-1.0455,-1.0457,0,0,0,0,0,-1.0881,-1.0864,-1.0852,-1.084,-1.0769,-1.0725,-1.0715,-1.068,-1.0676,-1.0665,-1.0631,-1.0611,-1.0525,-1.0532,-1.052,-1.0511,-1.0426,-1.0425,-1.0425,-1.0454,-1.0455,-1.0457,0,0,0,0,0,0,-1.0919,-1.0857,-1.0842,-1.0808,-1.0772,-1.0717,-1.0703,-1.0684,-1.0648,-1.0646,-1.0604,-1.0592,-1.0556,-1.0529,-1.0538,-1.0481,-1.0473,-1.047,-1.05,-1.0501,-1.0502,-1.0509,-1.0513,0,0,0,0,0,-1.0923,-1.0894,-1.0841,-1.0815,-1.0798,-1.0754,-1.0733,-1.071,-1.067,-1.0655,-1.0618,-1.0579,-1.0543,-1.0521,-1.0485,-1.045,-1.0437,-1.0437,-1.0439,-1.044,-1.0438,-1.0415,-1.0414,-1.0422,-1.0422,-1.0422,0,0,-1.0932,-1.0894,-1.0878,-1.0822,-1.0791,-1.076,-1.0741,-1.071,-1.0685,-1.0649,-1.061,-1.0582,-1.0536,-1.0499,-1.048,-1.0475,-1.0432,-1.0439,-1.0441,-1.0437,-1.0414,-1.0414,-1.0413,-1.0422,-1.0422,-1.0422,0,0,-1.0932,-1.0901,-1.0876,-1.0845,-1.0799,-1.0769,-1.0764,-1.0711,-1.0691,-1.0651,-1.0623,-1.0593,-1.0533,-1.0501,-1.0476,-1.0462,-1.0442,-1.0452,-1.0458,-1.0436,-1.0436,-1.0435,-1.0428,-1.0427,-1.045,-1.045,-1.045,0,-1.0948,-1.0901,-1.0865,-1.0835,-1.081,-1.0776,-1.0749,-1.0721,-1.0665,-1.0648,-1.0643,-1.0565,-1.0532,-1.0486,-1.0483,-1.0465,-1.0455,-1.0458,-1.0439,-1.0438,-1.0436,-1.043,-1.0427,-1.0451,-1.0451,-1.0451,-1.0451,0,-1.0923,-1.0891,-1.0876,-1.0823,-1.0796,-1.0768,-1.0726,-1.0703,-1.0681,-1.0652,-1.061,-1.0569,-1.0524,-1.0511,-1.049,-1.0461,-1.0459,-1.0447,-1.0439,-1.0438,-1.043,-1.0428,-1.0453,-1.0453,-1.0452,-1.0452,0,0,-1.0945,-1.0872,-1.0867,-1.0841,-1.0787,-1.076,-1.0729,-1.0685,-1.0666,-1.0628,-1.06,-1.0548,-1.0537,-1.0509,-1.0483,-1.0465,-1.0454,-1.0455,-1.0453,-1.0455,-1.0418,-1.0426,-1.0424,-1.044,-1.044,-1.0439,-1.0421,0,-1.0936,-1.088,-1.0846,-1.0803,-1.0772,-1.0738,-1.0711,-1.0674,-1.0645,-1.0613,-1.058,-1.0544,-1.0532,-1.0515,-1.0495,-1.046,-1.0446,-1.0461,-1.0412,-1.0411,-1.0424,-1.0421,-1.043,-1.0415,-1.0418,-1.0418,-1.0417,0,-1.0919,-1.0882,-1.0836,-1.0784,-1.0769,-1.0745,-1.0701,-1.0671,-1.0628,-1.0608,-1.0576,-1.055,-1.0514,-1.0509,-1.0458,-1.0469,-1.0447,-1.0426,-1.0425,-1.0418,-1.0414,-1.0413,-1.0409,-1.0407,-1.0413,-1.0413,-1.0414,0,-1.0938,-1.0877,-1.0841,-1.082,-1.0758,-1.0742,-1.0715,-1.0672,-1.0647,-1.0608,-1.0591,-1.0548,-1.0524,-1.0491,-1.0453,-1.0453,-1.0405,-1.0397,-1.0386,-1.0387,-1.0377,-1.0378,-1.0369,-1.0365,-1.0365,-1.0365,-1.0365,0,-1.0932,-1.0904,-1.0848,-1.0826,-1.0794,-1.0754,-1.0723,-1.0693,-1.0654,-1.0625,-1.0593,-1.0566,-1.0518,-1.0484,-1.0454,-1.0415,-1.0405,-1.0387,-1.0379,-1.0389,-1.0391,-1.0373,-1.0373,-1.0364,-1.0364,-1.0364,-1.0364,0,-1.0947,-1.0909,-1.0867,-1.0812,-1.0797,-1.0775,-1.0727,-1.0703,-1.0672,-1.0635,-1.0624,-1.0575,-1.0533,-1.0492,-1.0436,-1.0416,-1.0377,-1.0367,-1.0392,-1.0387,-1.0378,-1.0379,-1.0356,-1.0351,-1.0352,-1.0352,-1.0352,0,-1.0945,-1.0923,-1.0865,-1.0843,-1.0818,-1.0783,-1.0757,-1.0716,-1.069,-1.0638,-1.062,-1.0576,-1.0538,-1.0473,-1.0432,-1.0388,-1.0376,-1.0371,-1.0369,-1.0379,-1.0374,-1.0376,-1.0372,-1.0372,-1.0372,-1.0373,-1.0373,0,-1.0945,-1.0927,-1.0891,-1.0848,-1.0818,-1.0782,-1.0745,-1.0729,-1.068,-1.0653,-1.061,-1.0581,-1.0523,-1.0479,-1.043,-1.0401,-1.0378,-1.0374,-1.0368,-1.0378,-1.0393,-1.0383,-1.0394,-1.0374,-1.0374,-1.0374,-1.0374,-1.0374,-1.0951,-1.0929,-1.0885,-1.0845,-1.0813,-1.0779,-1.0753,-1.0719,-1.0683,-1.0633,-1.0611,-1.0567,-1.0521,-1.0454,-1.0425,-1.0389,-1.0383,-1.0376,-1.0374,-1.0373,-1.0374,-1.0399,-1.038,-1.038,-1.038,-1.038,-1.038,0,-1.0948,-1.0918,-1.0882,-1.0831,-1.0799,-1.0781,-1.0738,-1.0713,-1.0675,-1.0635,-1.0599,-1.0548,-1.0505,-1.046,-1.0414,-1.0393,-1.0381,-1.0382,-1.0383,-1.0376,-1.0383,-1.0391,-1.0393,-1.0393,-1.0393,-1.0393,-1.0393,-1.0393,-1.0943,-1.0905,-1.0881,-1.0826,-1.0795,-1.0752,-1.0729,-1.0696,-1.0664,-1.0609,-1.0573,-1.0544,-1.0501,-1.0451,-1.041,-1.0398,-1.0382,-1.0385,-1.037,-1.0377,-1.0376,-1.0375,-1.0383,-1.0383,-1.0383,-1.0366,-1.0366,-1.0366]}]]